Weather History for KHSE - August, 2012

Change the Weather History Date:

Thursday, August 30, 2012

  Actual Average Record
Temperature  
Mean Temperature 80 °F 78 °F  
Max Temperature 87 °F 83 °F 92 °F (1932)
Min Temperature 73 °F 72 °F 60 °F (1897)
Cooling Degree Days 15 13  
Month to date cooling degree days 455 407  
Year to date cooling degree days 1636 1295  
Since 1 June cooling degree days 1311 1152  
Growing Degree Days 30 (Base 50)    
Moisture  
Dew Point 69 °F    
Average Humidity 66    
Maximum Humidity 87    
Minimum Humidity 45    
Precipitation  
Precipitation 0.00 in 0.24 in 8.69 in (1999)
Month to date precipitation 5.35 6.68  
Year to date precipitation 36.25 36.94  
Snow  
Snow 0.00 in - - ()
Month to date snowfall 0.0  
Since 1 July snowfall 0.0  
Snow Depth 0.00 in    
Sea Level Pressure  
Sea Level Pressure 30.10 in    
Wind  
Wind Speed 5 mph (ESE)    
Max Wind Speed 9 mph    
Max Gust Speed 12 mph    
Visibility 10 miles    
Events      
T = Trace of Precipitation, MM = Missing Value Source: NWS Daily Summary

Daily Weather History Graph

Daily Weather History Graph

Search for Another Location

Airport or City:

Trip Planner

Search our weather history database for the weather conditions in past years. The results will help you decide how hot, cold, wet, or windy it might be!

Date:

Astronomy

Aug. 30, 2012 Rise Set
Actual Time 6:33 AM EDT 7:31 PM EDT
Civil Twilight 6:07 AM EDT 7:57 PM EDT
Nautical Twilight 5:36 AM EDT 8:28 PM EDT
Astronomical Twilight 5:05 AM EDT 8:59 PM EDT
Moon 6:45 PM EDT (8/30) 5:32 AM EDT (8/30)
Length of Visible Light 13h 49m
Length of Day
12h 57m
Waxing Gibbous, 99% of the Moon is Illuminated
Aug 30
Waxing Gibbous
Aug 31
Full
Sep 8
Last Quarter
Sep 15
New
Sep 22
First Quarter

Hourly Weather History & Observations

Time (EDT) Temp. Heat Index Dew Point Humidity Pressure Visibility Wind Dir Wind Speed Gust Speed Precip Events Conditions
12:51 AM 73.0 °F - 70.0 °F 90% 30.03 in 10.0 mi Calm Calm - N/A   Clear
1:51 AM 73.9 °F - 70.0 °F 87% 30.01 in 10.0 mi ENE 4.6 mph - N/A   Clear
2:51 AM 73.9 °F - 70.0 °F 87% 30.01 in 10.0 mi ENE 4.6 mph - N/A   Clear
3:51 AM 75.0 °F - 70.0 °F 84% 30.01 in 10.0 mi ENE 4.6 mph - N/A   Clear
4:51 AM 75.0 °F - 69.1 °F 82% 30.01 in 10.0 mi East 3.5 mph - N/A   Scattered Clouds
5:51 AM 73.9 °F - 68.0 °F 82% 30.04 in 10.0 mi ENE 3.5 mph - N/A   Clear
6:51 AM 75.0 °F - 66.9 °F 76% 30.06 in 10.0 mi ENE 4.6 mph - N/A   Clear
7:51 AM 75.9 °F - 69.1 °F 79% 30.07 in 10.0 mi ENE 4.6 mph - N/A   Mostly Cloudy
8:51 AM 78.1 °F - 71.1 °F 79% 30.09 in 10.0 mi ENE 3.5 mph - N/A   Scattered Clouds
9:51 AM 80.1 °F 83.2 °F 70.0 °F 71% 30.12 in 10.0 mi East 6.9 mph - N/A   Clear
10:51 AM 84.0 °F 87.0 °F 68.0 °F 58% 30.13 in 10.0 mi ESE 9.2 mph - N/A   Clear
11:51 AM 86.0 °F 88.8 °F 66.9 °F 53% 30.14 in 10.0 mi ESE 8.1 mph - N/A   Clear
12:51 PM 86.0 °F 86.8 °F 63.0 °F 46% 30.14 in 10.0 mi ESE 8.1 mph - N/A   Clear
1:51 PM 84.9 °F 88.8 °F 69.1 °F 59% 30.15 in 10.0 mi ESE 8.1 mph - N/A   Clear
2:51 PM 86.0 °F 90.1 °F 69.1 °F 57% 30.14 in 10.0 mi SE 6.9 mph - N/A   Clear
3:51 PM 86.0 °F 90.7 °F 70.0 °F 59% 30.13 in 10.0 mi SE 4.6 mph - N/A   Clear
4:51 PM 84.9 °F 90.1 °F 71.1 °F 63% 30.13 in 10.0 mi Variable 4.6 mph - N/A   Clear
5:51 PM 82.9 °F 85.8 °F 68.0 °F 60% 30.13 in 10.0 mi SW 4.6 mph - N/A   Clear
6:51 PM 81.0 °F 83.8 °F 68.0 °F 65% 30.13 in 10.0 mi SW 3.5 mph - N/A   Clear
7:51 PM 75.9 °F - 68.0 °F 76% 30.14 in 10.0 mi Calm Calm - N/A   Clear
8:51 PM 77.0 °F - 70.0 °F 79% 30.15 in 10.0 mi SSW 3.5 mph - N/A   Clear
9:51 PM 77.0 °F - 70.0 °F 79% 30.16 in 10.0 mi SW 3.5 mph - N/A   Clear
10:51 PM 75.9 °F - 70.0 °F 82% 30.17 in 10.0 mi SW 3.5 mph - N/A   Clear
11:51 PM 78.1 °F - 69.1 °F 74% 30.17 in 10.0 mi SSW 5.8 mph - N/A   Clear